This is the latest recevied weather packets stored in our database for station/object CE3MXM-13. If no packets are shown the sender has not sent any weather packets the latest 10 day(s).
| Time | Temp. | Humidity | Pressure | Rain* | Wind** | Luminosity | Snow |
|---|---|---|---|---|---|---|---|
| 1777997705 | 23.33° C | 46% | 1008.2 hPa | - | - | - | - |
| 1777997405 | 22.22° C | 48% | 1008.2 hPa | - | - | - | - |
| 1777997105 | 21.67° C | 48% | 1008.4 hPa | - | - | - | - |
| 1777996805 | 21.11° C | 50% | 1008.4 hPa | - | - | - | - |
| 1777996505 | 21.67° C | 49% | 1008.4 hPa | - | - | - | - |
| 1777996205 | 20.56° C | 52% | 1008.3 hPa | - | - | - | - |
| 1777995904 | 21.11° C | 49% | 1008.3 hPa | - | - | - | - |
| 1777995604 | 21.11° C | 50% | 1008.5 hPa | - | - | - | - |
| 1777995304 | 20.56° C | 52% | 1008.6 hPa | - | - | - | - |
| 1777995004 | 21.11° C | 50% | 1008.7 hPa | - | - | - | - |
| 1777994704 | 20.56° C | 48% | 1008.6 hPa | - | - | - | - |
| 1777994404 | 20° C | 49% | 1008.5 hPa | - | - | - | - |
| 1777994105 | 19.44° C | 49% | 1008.6 hPa | - | - | - | - |
| 1777993804 | 19.44° C | 51% | 1008.9 hPa | - | - | - | - |
| 1777993503 | 19.44° C | 50% | 1009 hPa | - | - | - | - |
| 1777993205 | 19.44° C | 49% | 1008.9 hPa | - | - | - | - |
| 1777992904 | 20° C | 49% | 1009.2 hPa | - | - | - | - |
| 1777992604 | 19.44° C | 51% | 1009.1 hPa | - | - | - | - |
| 1777992303 | 19.44° C | 51% | 1009 hPa | - | - | - | - |
| 1777992003 | 18.89° C | 53% | 1009.2 hPa | - | - | - | - |
| 1777991704 | 18.33° C | 52% | 1009.3 hPa | - | - | - | - |
| 1777991403 | 18.33° C | 55% | 1009.3 hPa | - | - | - | - |
| 1777991103 | 17.78° C | 55% | 1009.2 hPa | - | - | - | - |
| 1777990803 | 17.78° C | 53% | 1009.4 hPa | - | - | - | - |
| 1777990503 | 17.22° C | 55% | 1009.1 hPa | - | - | - | - |
* Rain since midnight (hover to see other rain measurements)
** Current wind speed in m/s (hover to see current wind gust speed)